Location: Camerons Lookout
(40.9833°S, 175.9333°E)
Time: 20:48:30
(UTC+00:00)

Cosmos 2016 Rocket - Pass Details

Date: 14 January 2026
Orbit: 946 x 1000 km, 83.0° (Epoch: 15 February)

Event Time Altitude Azimuth Distance (km) Brightness Sun altitude
Exits shadow 10:49:34 33° 331° (NNW) 1,586 4.8 -23.9°
Maximum altitude 10:52:27 65° 261° (W) 1,086 4.3 -24.1°
Drops below altitude 10° 10:58:49 10° 178° (S) 2,788 7.3 -24.6°
Sets 11:01:25 0° 175° (S) 3,749 8.1 -24.8°
